Regional Weather Roundup
Issued by NWS

Home | Current Version | Previous Version | Text Only | Print | Product List | Glossary On
Versions: 1 2 3 4 5 6 7 8 9 10 11 12 13 14 15 16 17 18 19 20 21 22 23 24 25 26 27
000
ASUS45 KSLC 270210
RWRUT

UTAH REGIONAL WEATHER ROUNDUP
NATIONAL WEATHER SERVICE SALT LAKE CITY UT
700 PM MST SUN FEB 26 2017

UTZ001>011-023>025-270300-

NORTHERN UTAH

CITY           SKY/WX    TMP DP  RH WIND       PRES   REMARKS
BRIGHAM CITY     N/A     36  19  51 S3        29.72F
HILL AFB       MOCLDY    31  19  61 SE12      29.70F WCI  22
LOGAN          CLOUDY    35  17  47 SE7       29.71F WCI  29
OGDEN          MOCLDY    34  20  56 S9        29.70F WCI  27
SALT LAKE CITY MOCLDY    38  20  48 S9        29.71F WCI  31
TOOELE VALLEY  PTCLDY    36  23  60 S8        29.70F WCI  29
WENDOVER       MOCLDY    37  23  56 N8        29.66F WCI  31
HEBER CITY     CLOUDY    30  14  51 SE10G17   29.71S WCI  21
WEST JORDAN    PTCLDY    37  28  70 S10       29.72F WCI  30

$$

UTZ011>015-024>027-270300-

CENTRAL/NORTHEAST UTAH

CITY           SKY/WX    TMP DP  RH WIND       PRES   REMARKS
PROVO AIRPORT  MOCLDY    31  22  69 NE3       29.75F
MOAB/CANYONLAN MOCLDY    40  10  29 SW7       29.78S
DELTA          CLOUDY    39  25  56 S15       29.70F WCI  31
PRICE          CLOUDY    32  16  51 E5        29.77S WCI  27
RICHFIELD      PTCLDY    39  16  38 SW7       29.75S WCI  34
ROOSEVELT      CLOUDY    28  12  50 CALM      29.84S
VERNAL         CLOUDY    20  13  74 CALM      29.82S

$$

UTZ013>016-019>022-027-270300-

SOUTHERN UTAH

CITY           SKY/WX    TMP DP  RH WIND       PRES   REMARKS
BRYCE CANYON   CLEAR     23  14  68 SE10      29.79F WCI  12
CEDAR CITY     CLEAR     37  19  48 SW13G23   29.75R WCI  29
MILFORD        CLEAR     40  19  43 SW21      29.73R WCI  30
ST GEORGE      MOCLDY    50  24  36 CALM      29.80S
HANKSVILLE     CLOUDY    43  18  36 S9        29.80S
KANAB          CLEAR     39  21  48 SW5       29.84R
BLANDING       MOCLDY    34  13  41 S6        29.92S WCI  29

$$

REGIONAL REPORTS     COLORADO/ARIZONA

CITY           SKY/WX    TMP DP  RH WIND       PRES   REMARKS
CRAIG, CO      CLEAR     20   6  55 CALM      29.80R
GRAND JUNCTION CLEAR     31   9  39 NE5       29.82S WCI  26
RIFLE, CO      CLEAR     31  10  41 SE7       29.83R WCI  24
MONTROSE, CO   PTCLDY    34  11  38 S6        29.87R WCI  29
CORTEZ, CO     MOCLDY    28  14  55 CALM      29.88R
COLORADO CITY    N/A     41  27  56 CALM      29.84S
PAGE, AZ       MOCLDY    46  18  32 NE3       29.79F
GRAND CANYON   CLOUDY    35  24  64 S10G21    29.87R WCI  27
KINGMAN, AZ    CLEAR     48  16  27 SW14      29.85S
FLAGSTAFF, AZ  PTCLDY    32  22  66 SW12      29.89S WCI  23

$$

REGIONAL REPORTS    NEVADA/IDAHO/WYOMING

CITY           SKY/WX    TMP DP  RH WIND       PRES   REMARKS
LAS VEGAS, NV  PTCLDY    56  26  31 SW7       29.77S
ELY, NY        CLEAR     29  18  63 S15       29.66F WCI  18
ELKO, NV       CLOUDY    35  15  44 W7        29.63F WCI  29
POCATELLO, ID  CLOUDY    28  17  63 S16       29.69F WCI  16
BURLEY, ID     CLOUDY    33  22  63 N3        29.66F
FORT BRIDGER,    N/A     13   5  68 SE9       29.73F WCI   1
EVANSTON, WY   CLOUDY    20   6  55 S8        29.68F WCI  10
ROCK SPRINGS,  CLOUDY    18   0  45 S5        29.73F WCI  11

$$




USA.gov is the U.S. government's official web portal to all federal, state and local government web resources and services.